Location: Basel
(47.5580°N, 7.5957°E)
Time: 11:28:45
(UTC+01:00)

ISS - Visible Passes

Search period start: 09 December 2025 00:00
Search period end: 19 December 2025 00:00
Orbit: 416 x 421 km, 51.6° (Epoch: 08 December)

Date Brightness Start Highest point End Pass type
(mag) Time Alt. Az. Time Alt. Az. Time Alt. Az.
11 Dec -0.5 07:13:52 10° S 07:15:52 15° SE 07:17:52 10° E visible
13 Dec -1.9 07:13:23 10° SSW 07:16:27 34° SE 07:19:33 10° ENE visible
14 Dec -1.2 06:25:57 10° SSW 06:28:38 22° SE 06:31:20 10° E visible
15 Dec -0.8 05:38:55 10° S 05:40:51 14° SE 05:42:46 10° E visible
15 Dec -3.6 07:13:47 10° WSW 07:17:09 75° SSE 07:20:32 10° ENE visible
16 Dec -2.9 06:26:49 17° SW 06:29:11 50° SSE 06:32:28 10° ENE visible
17 Dec -2.1 05:41:24 32° SE 05:41:24 32° SE 05:44:19 10° ENE visible
17 Dec -3.7 07:14:33 10° W 07:17:54 60° NNW 07:21:15 10° ENE visible
18 Dec -0.2 04:55:46 11° E 04:55:46 11° E 04:55:59 10° E visible
18 Dec -3.9 06:28:43 40° WSW 06:29:48 80° NNW 06:33:12 10° ENE visible
